Regional Weather Roundup
Issued by NWS State College, PA

Home | Current Version | Previous Version | Text Only | Print | Product List | Glossary On
Versions: 1 2 3 4 5 6 7 8 9 10 11 12 13 14 15 16 17 18 19 20 21 22 23 24 25 26 27 28 29 30 31 32 33 34 35 36 37 38 39 40 41 42 43 44 45 46 47 48 49 50
000
ASUS41 KCTP 020010
RWRCTP

REGIONAL WEATHER ROUNDUP
NATIONAL WEATHER SERVICE STATE COLLEGE PA
800 PM EDT SAT AUG 01 2015

Note: "fair" indicates few or no clouds below 12,000 feet with no
significant weather and/or obstructions to visibility.

* = STATION THAT DOES NOT REPORT PRECIPITATION /E.G. RAIN...SNOW...ETC/
    THUNDER OR FOG.

PAZ002>004-007>009-013>016-020>023-029>032-020100-
WESTERN PENNSYLVANIA

CITY           SKY/WX    TMP DP  RH WIND       PRES   REMARKS
ERIE           CLOUDY    74  60  61 VRB3      29.90R
MEADVILLE      PTCLDY    74  50  42 W6        29.93R
FRANKLIN*      CLEAR     73  52  46 W3        29.94R
NEW CASTLE     MOCLDY    78  55  44 CALM      29.92S
BEAVER COUNTY  NOT AVBL
BUTLER*        PTCLDY    75  55  50 W3        29.94S
PITTSBURGH INT PTCLDY    78  54  43 W8        29.92R
PITTSBURGH     MOCLDY    78  49  35 W16       29.92R
INDIANA*       CLOUDY    73  61  64 NW5       29.96R
LATROBE        MOCLDY    75  55  50 CALM      29.94R
WASHINGTON CO* NOT AVBL
$$

PAZ004>006-010>012-017>019-024>028-033>037-041-042-045-046-049>053-020100-
CENTRAL PENNSYLVANIA

CITY           SKY/WX    TMP DP  RH WIND       PRES   REMARKS
BRADFORD       CLEAR     70  49  47 W7        29.93R
DUBOIS         PTCLDY    70  59  68 SW6       29.93R
CLEARFIELD     MOCLDY    70  56  61 SW3       29.93R
JOHNSTOWN      MOCLDY    70  54  56 NW6       29.97R
ALTOONA        MOCLDY    73  57  57 NW5       29.94R
STATE COLLEGE  CLOUDY    70  63  78 CALM      29.92R
WILLIAMSPORT   PTCLDY    74  58  57 SW3       29.85R
SELINSGROVE    LGT RAIN  70  62  76 CALM      29.88R
FT INDIANTOWN  PTCLDY    77  60  54 W5        29.86R
CAPITAL CITY   CLEAR     80  55  42 NW5       29.86R
HARRISBURG     PTCLDY    80  60  50 W3        29.85R
YORK           CLEAR     74  65  73 SW3       29.86R
$$

PAZ038>040-043-044-047-048-054-055-060>062-067>071-020100-
EASTERN PENNSYLVANIA

CITY           SKY/WX    TMP DP  RH WIND       PRES   REMARKS
SCRANTON       MOCLDY    68  62  81 SE5       29.87R
MOUNT POCONO   PTCLDY    67  55  65 N10       29.91R
ALLENTOWN      CLEAR     78  57  48 W5        29.84R
QUAKERTOWN*    PTCLDY    79  59  50 CALM      29.85R
READING        PTCLDY    80  57  45 NW6       29.83R
LANCASTER      CLEAR     77  60  55 W6        29.85R
COATESVILLE    CLEAR     75  59  57 W5        29.87R
POTTSTOWN      CLEAR     78  61  55 NW3       29.85R
BLUE BELL      CLEAR     79  61  53 CALM      29.83R
DOYLESTOWN     CLEAR     78  56  46 VRB3      29.83R
WILLOW GROVE   NOT AVBL
NORTH PHILA    CLEAR     85  51  31 NW8       29.84R
PHILADELPHIA   PTCLDY    84  57  39 W12       29.83R
$$


USA.gov is the U.S. government's official web portal to all federal, state and local government web resources and services.